Vorticity
7 8 8 7 8 8 8 8 8 7 9 9 9 11 4 -2 2 5 3 1 6 7 3 6 5 4 5 4 6 4 4 5 3 2 3 5 6 4 2 2 6 5 2 3 4 4 4 5 6 5 6 6 5 4 4 4 7 8 8 8 7 5 3 4 5 7 9 10 8 6 6 6 7 7 8 7 6 8 6 3 4 5 3 1 3 7 9 8 9 9 7 6 4 4 5 6 11
7 7 6 8 8 8 8 6 7 10 12 11 10 6 -0 1 3 6 6 4 12 9 7 8 3 5 4 6 11 7 5 2 3 2 2 6 6 4 2 3 5 4 3 4 5 5 4 4 5 6 6 4 3 2 4 5 7 8 7 8 6 5 4 5 6 7 10 11 8 4 4 4 6 8 8 8 7 9 9 5 3 5 4 3 3 6 9 9 9 9 7 6 5 3 5 6 10
8 7 7 9 9 9 7 6 8 9 12 12 7 0 1 4 2 8 9 6 10 5 5 4 3 4 2 9 10 4 3 1 2 0 1 4 3 5 3 2 3 4 3 3 5 5 4 4 4 5 4 3 3 3 5 6 7 7 6 6 6 6 6 6 6 7 8 9 9 5 2 -2 4 11 9 8 8 11 12 6 3 3 5 5 4 5 8 10 9 9 8 6 5 3 4 6 10
7 8 8 7 7 8 8 8 9 8 14 14 6 3 6 5 3 7 6 4 3 0 2 1 4 6 6 9 4 1 2 2 3 2 4 -0 -2 2 2 3 4 4 3 3 3 4 4 4 5 5 4 3 3 4 6 7 7 5 5 5 6 8 7 6 6 8 7 7 8 5 1 -2 5 13 9 8 9 13 13 6 3 3 5 6 4 5 8 10 9 8 8 7 5 3 4 6 9
7 7 7 6 6 7 7 8 9 13 19 13 6 4 6 5 4 6 6 7 4 2 2 2 8 7 6 6 3 4 2 3 4 3 5 2 2 4 4 6 6 4 3 3 3 3 3 4 5 5 4 4 4 6 6 6 5 4 4 5 8 9 7 7 8 9 10 11 12 8 3 0 4 8 5 4 7 12 14 8 4 3 5 6 3 5 7 9 9 9 8 7 5 3 3 6 7
7 7 6 7 7 7 7 8 11 16 16 9 7 4 5 5 4 8 8 8 6 5 5 7 10 7 6 4 4 4 2 4 4 5 7 4 2 2 5 6 5 5 5 4 4 4 4 5 6 5 5 4 5 5 6 5 4 4 4 7 10 8 8 9 9 8 9 12 16 16 13 8 5 4 1 2 4 7 14 13 8 6 5 4 4 4 7 10 9 8 8 7 5 3 3 5 7
7 8 8 8 8 8 8 10 11 13 11 9 7 4 7 6 5 8 7 5 5 4 4 4 5 6 6 2 3 2 3 4 4 4 4 4 3 4 7 8 6 5 5 5 5 5 4 5 5 5 5 5 5 5 5 4 4 7 7 9 10 8 9 8 5 5 5 6 10 16 19 17 12 7 1 3 6 7 14 17 14 12 7 3 4 5 6 9 9 8 7 7 5 3 3 4 7
8 7 7 6 6 7 7 9 10 11 12 11 8 6 8 6 6 7 5 4 3 3 2 -2 -2 1 -1 -2 2 2 3 4 5 5 4 7 8 9 8 7 7 6 7 6 5 6 6 5 5 4 5 5 5 5 4 5 7 9 9 9 9 9 8 4 2 3 3 3 5 9 15 18 17 13 6 4 8 9 15 19 17 12 5 2 3 4 7 9 10 8 7 7 5 3 3 4 7
8 7 7 6 6 7 8 10 11 12 14 11 7 7 8 7 8 6 2 5 5 5 4 0 1 2 -1 -0 2 1 4 5 6 6 9 14 12 11 7 5 5 6 7 6 7 7 6 6 5 5 5 5 4 4 5 6 8 9 10 10 10 10 5 2 2 2 3 3 5 6 10 14 14 13 9 6 8 10 14 18 17 11 3 2 4 4 7 9 10 9 8 8 6 3 2 3 6
8 8 7 8 8 8 10 11 10 11 11 9 6 5 8 7 7 3 2 6 5 5 5 4 6 5 3 4 5 4 5 4 2 4 9 11 11 10 6 6 6 7 8 8 9 7 6 6 6 6 5 4 3 5 7 7 8 9 11 11 10 8 4 1 1 2 3 3 6 8 8 10 10 9 8 6 7 11 14 15 17 14 4 2 4 4 7 9 10 10 8 8 6 4 2 3 5
8 9 9 9 9 10 10 9 9 10 9 10 9 7 10 7 3 1 3 5 3 6 6 5 6 3 4 6 6 4 3 3 5 8 10 4 3 8 9 9 9 9 9 9 9 7 8 7 6 5 3 3 4 6 7 8 10 11 12 11 9 7 3 1 1 2 2 3 7 10 10 9 9 8 8 6 5 10 15 14 15 13 5 3 4 4 7 8 9 10 8 8 6 4 2 2 4
9 10 10 9 10 10 9 9 10 12 12 11 9 7 11 9 -1 -2 5 8 6 10 8 5 5 2 5 5 3 3 1 4 7 10 13 10 5 8 11 10 11 12 11 9 8 8 8 7 5 4 3 5 7 7 6 9 11 12 12 10 8 6 3 2 2 2 2 4 6 10 11 10 9 8 8 6 5 7 13 15 14 12 6 3 5 5 8 8 9 9 8 8 6 3 2 2 3
11 9 9 9 9 9 10 12 12 12 11 9 6 5 7 7 -0 -1 8 9 5 8 6 3 4 2 3 4 3 3 2 4 6 9 13 17 13 8 10 10 10 11 11 10 8 8 6 5 5 3 5 7 7 5 6 9 11 11 10 8 6 5 4 3 3 3 3 4 7 10 12 11 9 9 7 6 7 5 10 15 14 13 9 5 5 6 9 9 9 9 8 8 6 3 2 1 3
10 9 9 10 10 11 12 12 12 10 9 7 7 6 6 8 6 5 8 8 4 6 4 3 5 2 2 3 2 2 2 2 5 8 7 9 12 10 9 8 8 9 10 10 8 7 6 5 4 4 7 8 6 7 8 9 9 9 7 6 6 6 5 5 5 5 5 6 9 11 12 12 10 9 7 8 11 5 5 13 15 15 12 8 6 7 9 9 8 9 8 9 5 2 2 1 2
9 10 9 10 9 9 10 9 10 10 9 7 8 7 9 12 12 9 7 6 5 5 4 5 5 0 2 1 2 3 2 5 9 11 8 5 8 9 9 8 8 9 8 9 9 7 6 4 4 6 8 7 8 8 8 8 8 6 6 7 7 7 7 8 7 6 7 8 10 13 13 13 11 8 7 10 13 6 2 9 16 17 11 7 7 7 8 9 9 9 7 8 5 2 2 1 1
8 9 8 10 9 9 9 7 7 8 9 8 9 9 12 13 12 11 6 6 6 5 5 5 3 1 3 2 2 3 2 10 15 13 12 7 5 7 8 9 8 7 7 7 8 7 5 5 7 8 8 8 9 8 7 7 7 7 7 8 7 8 9 8 7 7 8 8 10 12 12 12 11 9 8 10 11 7 4 6 15 20 11 3 4 5 7 9 10 9 8 8 6 2 2 1 0
7 8 8 8 9 9 8 8 9 8 9 9 10 11 13 11 9 11 6 7 9 6 5 3 4 3 3 3 3 4 4 11 15 11 11 7 4 8 9 8 7 7 8 7 6 6 6 8 9 8 8 9 9 7 7 8 8 8 9 8 8 10 8 7 7 7 8 8 10 10 9 10 9 9 9 9 8 6 6 5 10 19 15 3 0 4 6 9 11 10 9 8 6 2 1 2 0
8 7 7 7 8 9 7 8 9 10 10 10 12 13 15 11 7 10 7 9 9 4 5 3 4 4 3 3 3 6 4 2 4 7 12 11 7 8 11 9 7 7 6 7 6 6 7 8 8 8 9 10 9 9 9 10 9 9 9 9 9 10 7 6 7 8 8 9 9 8 7 8 9 10 9 8 8 7 8 8 7 14 19 9 -0 3 6 7 11 11 9 8 7 4 2 1 1
10 8 7 8 8 9 8 8 8 12 13 12 12 12 16 15 6 7 8 8 7 4 5 2 1 3 3 3 6 7 1 -5 -1 3 8 15 12 6 9 9 7 7 5 6 6 8 9 8 10 10 10 10 10 11 10 10 9 9 9 8 8 8 7 6 7 8 9 10 9 7 6 8 10 12 11 9 10 10 10 10 8 10 18 16 3 2 5 4 10 13 10 8 7 5 2 2 2
11 9 8 8 8 10 10 9 10 12 12 12 12 10 15 14 6 5 5 2 2 2 3 2 1 2 2 2 7 6 0 0 3 5 5 13 17 8 5 7 8 9 6 5 6 8 9 10 11 11 11 11 10 10 9 8 8 8 8 7 8 8 7 7 8 9 9 9 9 8 8 8 9 11 13 12 10 12 12 10 10 8 13 21 11 3 5 3 5 12 11 8 7 5 3 2 2
10 11 10 8 9 9 7 7 10 11 12 11 10 11 9 5 5 5 3 2 2 3 2 2 1 1 1 3 7 5 5 7 6 11 11 10 18 14 7 8 9 9 7 7 7 9 10 11 10 10 12 11 9 7 6 6 6 6 6 6 7 8 8 7 8 9 10 10 9 8 9 9 8 8 11 14 11 11 13 11 10 7 9 19 15 6 6 4 2 8 12 10 8 6 3 2 2
9 10 9 7 10 10 7 8 9 10 13 10 11 13 4 -2 3 2 1 1 -0 2 1 1 1 1 3 4 5 4 4 5 9 20 20 14 18 16 10 12 12 10 9 8 7 8 9 9 8 10 12 9 6 5 5 5 5 5 5 5 6 7 8 7 7 7 7 8 9 9 10 9 8 7 8 12 14 13 14 12 12 9 6 10 12 10 8 5 2 5 9 11 9 7 5 3 3
9 9 9 7 9 10 9 11 10 10 13 12 11 11 5 2 2 -0 3 3 0 4 4 3 3 2 6 5 4 4 2 7 17 24 23 22 23 19 12 12 14 12 11 10 9 9 8 8 8 10 10 6 6 5 5 5 5 5 5 5 6 7 6 6 6 4 4 5 6 7 9 8 9 10 7 8 13 15 15 12 12 11 7 5 6 10 11 7 3 2 7 10 10 8 7 4 3
9 9 9 8 9 7 8 12 10 10 13 12 9 6 7 6 2 2 5 4 4 5 4 5 3 3 8 8 7 7 6 12 20 19 15 17 22 24 19 12 12 13 13 13 11 10 8 9 10 9 6 4 5 5 5 5 4 5 5 5 5 5 5 4 4 3 3 3 4 4 5 6 9 11 9 10 12 14 15 12 11 11 8 6 4 6 10 11 7 2 3 8 10 10 9 7 4
10 6 5 7 8 5 6 10 8 12 14 10 7 3 1 1 3 6 6 5 6 6 7 8 5 6 9 9 10 11 12 11 10 10 8 8 10 15 17 12 10 11 11 10 9 9 9 10 10 7 4 3 4 4 5 5 4 4 4 4 4 4 4 4 4 4 4 3 3 4 4 4 6 9 9 11 11 10 12 13 13 13 8 6 6 6 7 10 9 3 1 5 8 9 10 8 6
9 7 7 8 7 3 7 9 6 13 14 9 7 2 -2 0 5 7 8 10 10 12 14 12 9 9 11 14 15 14 14 8 2 4 5 6 7 5 7 8 8 6 6 8 10 11 10 9 7 6 5 4 5 4 4 5 5 5 4 5 5 5 5 5 5 6 5 4 4 4 4 4 5 8 7 7 8 10 12 10 10 14 15 11 7 6 7 9 9 4 0 3 5 7 10 10 8
12 11 10 10 8 4 9 12 7 12 11 5 4 -0 -1 5 10 8 7 10 11 14 13 11 11 11 16 22 18 11 8 3 1 3 3 5 7 6 5 5 6 4 4 7 11 11 8 7 5 4 5 5 5 5 5 5 5 6 6 7 7 7 6 6 6 6 6 5 5 5 5 5 5 5 6 7 7 11 14 11 7 8 14 18 14 8 7 10 11 7 1 0 5 5 6 9 10
15 14 12 11 11 7 12 14 8 9 8 3 3 1 1 4 9 8 5 9 12 12 8 7 9 10 13 15 11 8 4 1 2 3 3 5 7 9 9 7 6 5 6 8 9 9 7 5 3 3 4 5 5 6 6 6 6 6 8 9 9 8 7 7 7 7 7 6 6 6 5 5 5 4 5 8 8 8 9 10 11 7 7 16 22 18 10 7 11 14 8 -1 1 5 6 7 8
14 15 15 14 16 14 15 13 8 9 6 4 9 8 4 2 6 8 6 11 10 5 4 6 5 4 6 5 6 8 6 5 6 4 3 5 7 9 10 10 9 8 9 10 7 6 5 4 3 3 4 5 5 6 7 7 7 8 9 10 10 9 8 8 8 7 7 7 6 6 6 5 5 5 5 6 9 9 8 6 7 8 6 9 18 24 18 10 8 14 18 8 -0 1 5 7 6
12 14 15 14 17 16 13 12 14 18 13 8 10 9 7 7 9 10 9 14 14 7 5 6 5 5 6 7 8 10 8 7 8 5 3 3 6 8 8 10 9 10 11 10 7 5 5 4 3 3 3 4 5 5 7 8 8 9 10 10 10 9 8 7 8 8 7 7 7 7 7 6 5 6 5 5 7 9 9 7 7 8 9 7 10 18 19 15 11 10 17 18 8 1 2 5 6
12 14 16 17 22 23 22 22 21 21 19 14 12 10 11 11 9 8 8 12 13 10 6 6 8 9 9 9 9 9 7 7 7 6 4 3 5 7 7 7 7 8 8 7 6 5 5 4 3 4 4 4 5 6 7 8 9 9 9 9 9 8 7 6 6 6 6 6 7 8 8 6 5 6 6 5 5 7 9 9 10 11 11 11 9 10 14 17 19 14 13 18 13 6 2 2 5
12 10 12 17 23 24 24 23 16 10 9 8 8 9 9 7 5 4 5 6 6 7 6 6 8 9 7 6 5 5 5 6 6 6 6 5 6 7 7 7 6 6 6 5 4 4 4 4 4 4 5 5 5 7 8 8 8 9 9 8 8 7 5 5 5 6 7 8 8 8 9 8 7 7 8 7 3 6 10 10 10 10 10 12 11 10 11 14 20 19 15 17 19 15 8 2 3
9 5 3 5 10 10 8 9 8 6 4 4 7 9 7 5 3 2 4 5 5 6 6 5 8 8 7 5 4 5 5 5 6 9 10 9 8 9 9 9 8 6 5 5 5 5 4 5 5 5 6 6 5 6 7 7 8 9 9 8 7 6 5 5 6 7 8 9 9 9 10 10 9 9 9 8 5 4 8 12 12 10 10 10 11 12 11 8 11 17 14 11 18 24 20 10 2
4 4 1 1 3 3 2 1 3 6 6 5 7 8 9 9 7 5 5 5 5 5 6 7 8 7 6 5 5 6 6 6 9 12 10 9 9 8 9 10 9 8 7 7 7 7 6 6 7 7 7 7 6 6 6 7 8 9 9 8 7 7 7 7 7 8 8 9 10 10 10 12 12 11 10 9 7 5 6 11 12 10 10 9 9 13 14 7 1 11 17 7 7 19 26 25 12
4 5 4 3 2 3 3 1 1 4 5 6 7 8 11 10 6 5 5 5 7 8 9 12 15 13 11 9 8 7 8 9 12 12 8 7 8 7 8 8 9 9 9 8 7 7 7 7 8 9 9 8 8 7 6 6 7 9 8 8 8 7 8 8 7 7 7 8 8 9 9 10 12 12 13 12 9 7 6 8 9 9 9 8 8 9 13 13 3 5 15 11 6 10 15 22 23
4 4 5 5 3 3 5 5 4 5 5 6 8 7 7 6 5 6 8 8 9 12 12 13 15 16 14 13 10 7 7 7 8 8 6 7 9 9 8 7 8 9 9 9 8 8 8 7 8 8 8 7 7 7 7 7 6 7 8 8 7 7 7 7 8 7 7 8 8 8 8 8 10 10 12 15 13 9 7 7 7 8 8 6 8 9 9 13 11 6 10 14 15 15 12 12 19
3 3 4 4 5 6 7 8 9 8 8 8 9 8 6 6 6 8 12 13 11 11 11 10 8 8 8 9 7 5 4 4 5 5 5 8 9 8 9 8 7 7 8 9 8 8 7 8 7 7 7 6 7 8 8 8 7 7 7 7 7 6 7 7 7 8 7 8 8 9 9 9 9 9 9 12 14 12 9 9 7 6 6 5 6 9 8 8 11 9 7 11 15 18 21 24 25
6 6 6 5 6 8 7 7 8 8 7 7 6 5 5 6 6 8 13 15 10 3 3 7 7 5 6 6 5 4 4 3 5 5 6 9 9 8 10 10 8 7 7 7 7 7 6 7 7 7 7 6 7 8 7 8 7 7 7 7 7 6 7 7 8 8 8 8 9 9 10 10 10 10 9 9 13 14 12 11 8 6 7 7 6 6 7 8 8 10 7 7 10 8 9 22 32
9 9 10 9 8 8 7 5 6 6 5 4 4 4 6 6 7 9 10 11 8 3 2 6 7 9 8 5 4 5 5 3 4 4 4 6 6 8 10 9 9 10 9 9 7 6 6 7 8 8 8 8 8 7 7 7 7 6 6 6 7 7 7 8 8 8 8 8 9 10 10 11 11 11 11 10 10 12 13 13 11 9 8 8 7 5 6 7 5 9 11 7 8 4 -0 7 19
7 7 7 8 7 7 7 6 6 6 5 5 5 5 6 7 7 9 9 8 7 7 7 5 6 9 7 3 5 7 7 6 5 5 6 8 9 10 10 9 11 13 12 11 8 8 9 9 9 9 9 9 8 6 6 7 6 5 6 7 7 8 8 9 9 8 9 9 9 10 10 11 11 11 11 11 10 10 11 13 12 12 11 8 7 5 4 6 2 4 9 8 8 5 3 5 6
4 4 4 4 6 6 6 7 6 5 5 4 5 6 7 9 6 5 7 5 3 3 3 4 6 6 5 6 8 7 7 7 6 7 8 9 8 8 8 9 14 15 12 10 8 9 10 11 11 10 10 10 7 7 7 7 7 6 7 8 8 9 9 10 10 9 9 9 9 10 10 10 11 11 11 11 11 10 9 11 12 12 12 11 10 7 5 5 4 3 3 5 9 7 7 7 4
5 6 5 3 4 5 5 6 5 5 5 3 4 4 3 6 6 4 5 2 1 1 -1 2 5 3 3 5 5 4 4 5 6 9 11 9 8 10 10 11 13 13 11 11 10 9 10 10 10 9 9 8 7 7 8 8 8 8 8 9 10 11 11 10 10 10 9 8 8 9 10 10 11 10 11 11 10 10 10 10 10 11 12 11 11 11 9 7 7 7 4 2 6 7 7 8 6
11 10 8 7 7 6 6 5 4 5 5 3 4 1 -2 4 5 1 -0 -0 0 1 -1 0 2 1 0 -0 3 7 8 8 9 10 13 15 16 17 16 14 11 10 10 10 11 11 10 9 10 11 10 9 8 8 9 9 10 10 10 10 11 12 12 11 10 10 10 9 7 7 9 10 11 10 11 11 10 10 10 10 10 10 11 11 11 11 12 12 10 10 8 5 4 4 6 6 6
10 10 10 10 10 9 9 8 7 6 6 6 5 3 -1 1 5 5 2 1 0 0 1 1 -0 1 2 1 7 13 11 9 9 8 11 19 23 20 17 16 13 12 12 11 12 11 10 11 11 11 10 8 8 9 10 11 11 12 12 12 12 12 12 11 10 10 10 10 9 8 7 9 11 11 11 11 11 10 10 10 10 11 11 11 11 11 11 12 12 12 11 9 6 6 5 5 6
15 15 14 13 11 11 12 12 11 8 9 8 5 6 6 2 5 9 7 6 8 8 10 12 10 7 6 10 15 15 11 9 9 8 10 20 24 18 12 12 11 12 13 12 12 10 9 10 10 10 10 11 11 10 12 13 12 12 12 12 12 11 11 10 10 10 9 10 10 9 8 8 9 10 11 12 11 11 10 10 10 10 11 11 11 11 10 10 10 10 11 11 10 9 8 7 8
17 16 16 13 11 12 14 17 18 15 13 11 4 3 6 3 1 5 12 19 21 19 18 21 24 20 20 24 21 14 11 11 11 10 12 19 24 17 10 8 8 9 11 12 13 12 10 9 9 10 11 11 10 8 9 11 11 11 11 11 10 9 10 10 10 10 10 10 11 10 8 7 7 8 9 11 11 12 12 11 10 10 11 12 12 11 11 10 10 10 10 10 10 9 9 9 9
10 10 14 16 15 14 13 13 15 17 21 23 20 13 8 9 13 18 25 26 20 17 16 16 18 19 22 25 22 16 14 14 11 10 12 13 14 11 8 8 6 6 8 9 10 12 12 11 10 10 9 8 9 8 8 8 8 8 9 10 11 10 10 11 11 9 9 9 9 10 9 8 8 7 8 8 10 11 11 11 11 10 9 10 11 11 11 10 10 10 10 10 9 9 9 9 9
7 6 7 8 9 9 7 6 6 10 16 24 30 25 17 19 26 28 26 20 13 12 14 12 9 11 14 14 15 15 12 10 9 10 11 10 6 1 2 5 1 -1 3 8 9 9 10 12 11 9 9 8 10 10 9 9 9 8 8 8 10 11 11 11 12 10 8 7 7 8 9 9 9 8 8 8 8 9 10 10 10 10 9 9 8 8 9 9 9 9 9 9 9 8 8 9 9
7 7 8 9 11 9 6 7 7 7 12 17 21 18 14 19 22 19 16 13 11 10 10 9 6 9 13 10 8 9 9 8 7 6 7 6 4 1 5 8 1 -2 5 10 11 9 7 8 10 9 9 8 8 9 9 9 9 8 7 7 7 9 9 11 12 11 10 8 7 7 8 8 8 7 7 8 9 8 8 9 9 9 10 9 10 9 8 8 7 7 7 8 9 8 7 6 7
7 7 10 12 14 12 9 9 11 14 15 12 11 9 6 9 12 12 12 9 9 8 8 10 9 11 13 11 11 13 12 5 -3 -1 3 1 2 7 11 9 3 6 12 11 12 13 10 6 6 6 6 5 5 5 6 7 7 7 8 7 7 7 8 9 10 11 11 10 8 7 7 8 8 8 7 7 8 9 9 9 9 9 10 10 10 10 10 10 9 8 7 5 6 7 8 8 7
3 3 5 8 8 8 8 10 11 13 11 6 9 11 8 9 8 7 10 11 8 7 8 9 7 6 6 10 17 17 11 3 -7 -6 -0 1 4 7 4 1 4 13 17 13 13 14 14 12 10 9 8 7 7 6 7 8 8 7 7 7 7 7 7 8 9 10 11 10 9 8 8 9 10 9 9 8 8 8 8 9 9 10 10 11 11 11 11 11 11 11 10 8 6 5 5 7 8
5 4 6 8 9 9 8 9 10 10 9 8 10 9 9 15 12 5 7 10 7 6 8 7 6 10 11 11 13 8 2 -2 -6 -6 -0 2 2 2 2 5 13 17 13 12 14 13 13 14 13 13 13 11 10 9 8 9 9 8 6 5 5 6 7 7 8 9 11 11 10 9 8 8 9 9 9 9 8 8 7 7 8 8 8 8 8 8 8 9 9 10 10 11 10 8 6 4 4
4 4 6 7 9 13 10 7 8 7 7 5 4 4 7 10 10 7 5 6 10 12 10 6 6 12 15 13 14 8 -0 -3 -6 -6 1 5 2 4 12 18 19 16 9 8 11 11 10 10 11 12 13 13 13 13 14 12 9 7 5 4 3 5 6 6 6 6 7 9 9 8 7 7 7 7 7 7 7 7 7 6 5 5 5 5 5 5 6 6 7 8 8 9 9 9 8 6 4
5 4 6 6 8 11 11 8 5 2 2 2 3 8 11 7 5 5 0 3 15 16 9 6 4 3 4 9 16 13 6 3 -3 -7 -1 5 4 5 11 14 9 6 9 8 4 5 8 12 16 15 12 12 13 13 16 17 16 14 12 9 6 5 4 5 6 6 5 7 7 6 5 5 5 5 5 5 5 5 6 6 6 6 6 6 6 6 6 7 7 7 8 8 8 8 8 8 7
11 7 4 5 7 9 10 10 7 4 3 4 5 7 11 6 -2 -2 2 8 16 12 4 5 8 7 6 6 7 4 0 -2 -5 -4 2 6 9 7 6 8 3 1 11 10 1 7 18 17 10 5 2 3 6 8 9 11 15 18 18 18 15 12 10 7 4 3 3 4 5 6 6 6 5 5 4 4 4 4 5 5 5 5 5 5 4 5 5 5 6 6 7 8 8 8 8 9 9
5 6 7 5 4 2 1 1 0 0 1 3 5 4 8 7 -3 -2 7 11 12 11 6 4 6 7 7 4 2 1 1 1 -1 1 3 8 14 10 1 4 7 6 12 9 -2 7 21 14 -1 -4 -1 1 2 7 9 6 6 10 13 16 18 18 18 17 14 11 8 5 3 3 4 6 6 6 5 4 3 3 3 3 3 3 3 3 4 4 5 5 5 5 6 6 7 8 8 8 9
3 3 7 8 9 7 4 3 3 3 1 3 5 5 8 9 4 3 6 5 6 10 9 5 2 1 0 -1 -2 -2 -2 -1 -2 -3 4 15 17 7 -2 3 9 8 9 6 -1 5 13 3 -12 -12 -1 3 -0 5 13 12 7 6 5 4 6 9 11 14 17 17 16 15 12 8 6 6 6 7 7 6 6 5 4 4 3 4 4 5 6 6 7 7 7 7 7 6 7 8 8 8 8
11 4 -1 3 9 8 3 2 2 -0 -2 1 5 4 4 5 5 5 6 6 7 9 8 6 5 5 5 3 2 3 1 -1 -2 1 11 16 8 2 4 7 8 7 6 4 -3 -4 -0 -4 -9 -5 2 5 3 6 14 14 9 5 1 -4 -4 2 7 7 8 10 11 13 13 13 12 11 10 9 8 7 7 7 7 6 5 5 5 5 6 6 6 6 6 6 6 6 6 7 8 8 8
Height
5831 5832 5833 5834 5835 5836 5836 5837 5839 5839 5840 5839 5836 5835 5834 5835 5839 5840 5841 5841 5843 5843 5842 5843 5844 5845 5845 5845 5845 5845 5845 5845 5845 5845 5845 5845 5845 5845 5845 5845 5845 5845 5845 5844 5844 5844 5843 5843 5843 5842 5842 5842 5841 5841 5841 5841 5841 5840 5840 5840 5839 5839 5839 5839 5839 5838 5838 5838 5838 5839 5839 5839 5840 5839 5840 5840 5841 5842 5843 5843 5844 5845 5845 5845 5845 5846 5846 5846 5846 5847 5847 5847 5847 5848 5849 5849 5849
5828 5829 5829 5830 5832 5833 5833 5834 5836 5837 5838 5837 5833 5831 5832 5833 5836 5839 5839 5840 5841 5840 5840 5841 5841 5842 5842 5842 5842 5842 5842 5842 5842 5842 5843 5843 5843 5843 5843 5843 5843 5843 5843 5842 5842 5842 5841 5841 5841 5840 5840 5840 5839 5839 5839 5839 5839 5839 5839 5838 5838 5838 5837 5837 5838 5837 5837 5838 5838 5838 5838 5838 5839 5839 5839 5839 5840 5840 5841 5842 5842 5843 5844 5844 5844 5845 5845 5845 5846 5846 5846 5847 5847 5848 5848 5848 5849
5825 5826 5826 5827 5829 5829 5830 5831 5833 5834 5835 5834 5830 5828 5830 5831 5834 5836 5837 5838 5838 5838 5839 5839 5840 5841 5840 5840 5840 5840 5840 5840 5840 5840 5841 5841 5842 5841 5841 5841 5841 5841 5840 5840 5840 5840 5839 5839 5839 5838 5838 5838 5838 5838 5838 5838 5837 5837 5837 5837 5837 5837 5836 5836 5837 5837 5836 5837 5837 5837 5837 5837 5838 5838 5838 5838 5838 5839 5840 5840 5841 5842 5842 5843 5843 5844 5844 5845 5845 5845 5846 5846 5847 5847 5848 5848 5848
5822 5823 5823 5824 5825 5826 5827 5828 5830 5832 5833 5831 5826 5826 5828 5829 5832 5834 5835 5835 5835 5835 5836 5837 5838 5838 5838 5839 5838 5838 5838 5838 5838 5838 5839 5840 5840 5839 5839 5839 5839 5838 5838 5838 5838 5838 5837 5837 5837 5837 5837 5836 5836 5836 5836 5836 5836 5835 5835 5835 5835 5835 5835 5835 5835 5836 5835 5835 5835 5836 5836 5836 5836 5836 5837 5837 5837 5837 5838 5839 5840 5841 5841 5841 5842 5843 5843 5844 5844 5844 5845 5846 5846 5847 5848 5848 5848
5819 5820 5820 5821 5822 5823 5825 5826 5828 5830 5830 5828 5823 5823 5826 5827 5830 5831 5832 5833 5832 5833 5833 5834 5835 5835 5836 5837 5836 5836 5836 5836 5836 5837 5837 5838 5838 5838 5837 5837 5836 5836 5836 5836 5836 5836 5836 5835 5835 5835 5835 5835 5835 5835 5835 5834 5834 5834 5834 5834 5834 5834 5834 5834 5834 5834 5834 5834 5834 5834 5834 5834 5835 5835 5836 5836 5836 5836 5837 5837 5838 5839 5840 5840 5841 5841 5842 5843 5843 5844 5844 5845 5846 5847 5847 5847 5847
5816 5817 5817 5818 5819 5821 5822 5823 5825 5827 5827 5824 5820 5821 5823 5825 5828 5828 5829 5830 5831 5831 5831 5832 5833 5833 5834 5835 5835 5835 5834 5835 5835 5835 5836 5835 5836 5835 5835 5834 5834 5834 5834 5834 5834 5834 5834 5833 5833 5833 5833 5833 5833 5833 5833 5833 5833 5833 5833 5833 5832 5832 5832 5833 5833 5833 5833 5833 5832 5832 5832 5833 5833 5834 5834 5835 5835 5835 5835 5836 5836 5837 5838 5838 5839 5840 5841 5842 5842 5843 5843 5844 5845 5846 5846 5847 5847
5813 5814 5815 5816 5817 5818 5819 5821 5823 5823 5824 5822 5818 5818 5820 5822 5825 5825 5826 5828 5829 5830 5830 5831 5832 5833 5833 5833 5833 5833 5833 5834 5833 5834 5834 5833 5833 5833 5832 5832 5832 5832 5832 5832 5832 5832 5832 5832 5832 5832 5831 5831 5831 5831 5831 5831 5832 5832 5832 5832 5831 5831 5831 5832 5832 5832 5832 5831 5831 5830 5830 5830 5831 5832 5832 5833 5833 5833 5833 5833 5833 5834 5836 5837 5838 5839 5840 5841 5841 5842 5842 5843 5844 5845 5846 5846 5846
5810 5811 5812 5813 5814 5815 5817 5818 5820 5820 5821 5820 5816 5815 5816 5818 5821 5822 5824 5826 5827 5828 5829 5830 5831 5831 5831 5831 5832 5831 5832 5832 5831 5832 5832 5831 5831 5831 5830 5830 5830 5830 5830 5830 5830 5830 5830 5830 5830 5830 5829 5829 5829 5830 5830 5830 5831 5831 5831 5830 5830 5830 5830 5830 5830 5830 5830 5830 5830 5829 5829 5828 5829 5829 5830 5830 5830 5830 5830 5831 5831 5832 5834 5835 5836 5838 5839 5840 5840 5840 5841 5843 5844 5845 5845 5846 5846
5807 5807 5809 5810 5811 5813 5814 5816 5817 5818 5818 5817 5813 5812 5813 5814 5817 5820 5822 5824 5825 5827 5828 5829 5830 5830 5829 5830 5830 5829 5830 5830 5829 5829 5830 5829 5829 5829 5828 5828 5828 5827 5827 5827 5828 5828 5828 5828 5828 5827 5827 5827 5828 5828 5828 5829 5829 5829 5829 5829 5828 5828 5829 5829 5829 5829 5829 5829 5828 5827 5827 5827 5827 5827 5827 5828 5828 5828 5828 5829 5829 5831 5832 5833 5835 5836 5837 5838 5838 5839 5840 5842 5843 5844 5845 5845 5845
5803 5804 5806 5807 5808 5810 5812 5813 5814 5815 5814 5813 5811 5810 5810 5811 5814 5817 5820 5822 5823 5824 5826 5827 5828 5828 5828 5828 5828 5828 5828 5828 5827 5827 5827 5827 5827 5827 5826 5826 5825 5825 5825 5825 5826 5826 5826 5826 5825 5825 5825 5825 5826 5827 5827 5827 5828 5827 5827 5827 5827 5827 5827 5827 5828 5828 5827 5827 5827 5826 5825 5825 5825 5825 5825 5825 5826 5826 5826 5827 5828 5829 5830 5832 5833 5834 5835 5836 5837 5837 5839 5840 5842 5843 5844 5844 5845
5801 5802 5803 5804 5805 5807 5808 5809 5810 5811 5810 5810 5810 5809 5809 5809 5811 5814 5817 5819 5820 5822 5823 5824 5825 5825 5826 5826 5826 5826 5827 5826 5826 5825 5825 5825 5825 5825 5824 5824 5824 5823 5823 5823 5824 5824 5824 5823 5823 5823 5823 5824 5824 5825 5825 5825 5825 5826 5825 5825 5826 5826 5826 5826 5826 5826 5826 5826 5825 5824 5824 5824 5823 5823 5823 5823 5824 5824 5824 5825 5826 5827 5829 5830 5831 5832 5834 5835 5835 5836 5837 5839 5841 5842 5843 5844 5844
5798 5799 5800 5801 5802 5804 5805 5806 5807 5808 5807 5807 5808 5807 5807 5806 5807 5811 5815 5816 5818 5820 5821 5822 5822 5823 5823 5824 5824 5824 5824 5823 5823 5823 5822 5822 5822 5822 5822 5822 5822 5821 5821 5821 5821 5821 5821 5821 5821 5820 5821 5822 5823 5823 5823 5823 5823 5824 5824 5824 5824 5825 5825 5825 5825 5824 5824 5824 5823 5822 5822 5822 5821 5821 5821 5821 5822 5822 5822 5823 5824 5825 5827 5828 5829 5831 5832 5833 5833 5834 5836 5837 5839 5841 5842 5843 5844
5795 5796 5797 5798 5799 5800 5802 5804 5804 5804 5803 5802 5802 5802 5802 5802 5804 5809 5813 5814 5816 5817 5818 5819 5820 5820 5821 5821 5821 5821 5821 5821 5821 5820 5820 5819 5819 5819 5819 5819 5819 5819 5819 5819 5819 5819 5818 5818 5818 5818 5819 5821 5821 5821 5821 5821 5822 5822 5822 5822 5823 5823 5823 5823 5823 5823 5822 5822 5821 5820 5820 5820 5819 5819 5819 5819 5820 5820 5820 5821 5822 5824 5825 5826 5828 5829 5830 5831 5832 5833 5834 5836 5838 5839 5840 5842 5843
5792 5794 5795 5796 5797 5798 5800 5800 5800 5800 5797 5797 5799 5799 5800 5802 5804 5807 5810 5811 5813 5814 5814 5815 5817 5817 5818 5818 5818 5818 5818 5818 5818 5818 5817 5817 5816 5816 5816 5816 5816 5817 5817 5817 5816 5816 5816 5816 5816 5817 5818 5819 5819 5819 5820 5820 5820 5820 5821 5821 5821 5821 5821 5821 5821 5821 5820 5820 5819 5819 5818 5818 5818 5818 5818 5818 5818 5818 5819 5819 5820 5821 5823 5825 5826 5827 5829 5829 5830 5831 5832 5834 5836 5838 5839 5841 5842
5790 5791 5792 5793 5794 5796 5797 5796 5796 5795 5794 5795 5796 5797 5800 5801 5803 5805 5807 5808 5809 5811 5811 5813 5815 5815 5815 5815 5815 5815 5816 5816 5816 5816 5815 5814 5814 5814 5814 5814 5814 5814 5814 5814 5814 5813 5813 5813 5814 5816 5817 5817 5817 5818 5818 5818 5818 5819 5819 5819 5819 5820 5819 5819 5819 5819 5818 5818 5817 5817 5816 5816 5816 5816 5816 5816 5816 5817 5817 5818 5819 5820 5821 5823 5824 5826 5827 5828 5829 5830 5831 5832 5834 5836 5838 5839 5841
5788 5789 5790 5791 5792 5793 5793 5792 5793 5792 5792 5793 5793 5795 5798 5798 5801 5802 5804 5805 5806 5807 5809 5810 5811 5812 5812 5812 5812 5812 5813 5814 5814 5813 5813 5812 5812 5811 5811 5812 5812 5812 5812 5811 5811 5811 5811 5812 5814 5815 5815 5815 5816 5816 5816 5816 5817 5817 5817 5817 5817 5818 5818 5817 5817 5817 5816 5816 5815 5815 5815 5815 5815 5815 5815 5815 5815 5815 5816 5817 5817 5818 5819 5821 5822 5824 5825 5826 5827 5828 5829 5831 5833 5835 5836 5838 5839
5786 5787 5788 5789 5790 5790 5789 5789 5790 5789 5789 5791 5791 5793 5795 5796 5799 5800 5801 5803 5804 5805 5806 5807 5808 5809 5809 5809 5810 5810 5810 5811 5811 5811 5810 5810 5809 5809 5809 5809 5809 5809 5809 5809 5809 5809 5810 5811 5813 5813 5813 5814 5814 5814 5815 5815 5815 5815 5815 5815 5816 5816 5815 5815 5815 5815 5814 5814 5813 5813 5813 5813 5813 5813 5813 5814 5814 5814 5814 5815 5815 5816 5818 5819 5820 5822 5824 5825 5826 5827 5828 5830 5831 5833 5835 5836 5838
5784 5785 5786 5787 5787 5786 5786 5787 5787 5787 5787 5788 5789 5791 5793 5794 5796 5798 5799 5801 5802 5803 5804 5805 5806 5806 5806 5806 5808 5808 5808 5808 5808 5808 5808 5807 5807 5807 5807 5807 5807 5807 5807 5807 5807 5808 5809 5810 5811 5811 5812 5812 5812 5812 5813 5813 5813 5813 5814 5814 5814 5814 5813 5813 5813 5812 5812 5812 5811 5811 5811 5811 5811 5812 5812 5812 5812 5812 5812 5813 5813 5814 5816 5817 5819 5820 5822 5824 5825 5826 5827 5828 5830 5832 5833 5835 5836
5781 5782 5784 5784 5783 5783 5783 5785 5785 5784 5785 5786 5788 5790 5791 5792 5793 5795 5797 5798 5800 5801 5802 5803 5803 5803 5803 5804 5806 5806 5805 5805 5805 5806 5805 5806 5806 5806 5805 5805 5805 5805 5805 5805 5806 5807 5808 5809 5809 5810 5810 5810 5810 5811 5811 5811 5812 5812 5812 5812 5812 5812 5812 5811 5811 5810 5810 5810 5809 5809 5809 5809 5810 5810 5810 5810 5811 5810 5810 5811 5812 5813 5814 5815 5817 5819 5821 5822 5824 5825 5826 5827 5829 5831 5833 5834 5835
5779 5780 5781 5780 5780 5780 5781 5783 5783 5782 5783 5784 5786 5788 5788 5789 5791 5793 5795 5796 5797 5798 5799 5800 5800 5800 5800 5802 5804 5803 5803 5802 5803 5803 5803 5804 5804 5804 5803 5803 5803 5803 5803 5804 5805 5806 5807 5807 5808 5808 5808 5808 5808 5809 5809 5809 5810 5810 5810 5811 5811 5811 5810 5810 5809 5809 5809 5808 5807 5807 5807 5807 5808 5808 5808 5808 5808 5808 5808 5809 5810 5811 5812 5814 5815 5817 5819 5821 5822 5824 5825 5826 5827 5830 5832 5833 5834
5777 5778 5778 5777 5778 5778 5779 5780 5781 5781 5781 5782 5784 5786 5786 5787 5789 5791 5792 5793 5795 5796 5797 5798 5798 5798 5799 5801 5802 5802 5801 5800 5800 5800 5800 5801 5801 5801 5800 5800 5800 5801 5801 5802 5803 5804 5805 5805 5806 5806 5806 5807 5807 5807 5807 5808 5808 5808 5809 5809 5809 5809 5809 5808 5808 5808 5807 5806 5805 5805 5805 5805 5806 5806 5806 5806 5806 5806 5806 5807 5808 5809 5810 5812 5813 5815 5817 5819 5820 5822 5823 5824 5826 5828 5830 5832 5833
5775 5776 5775 5775 5776 5776 5777 5779 5779 5779 5780 5780 5781 5783 5784 5785 5787 5789 5790 5791 5792 5794 5794 5795 5796 5796 5797 5799 5800 5799 5799 5798 5798 5797 5797 5797 5798 5798 5798 5798 5798 5799 5799 5800 5801 5802 5803 5803 5803 5804 5804 5805 5805 5806 5806 5806 5806 5807 5807 5807 5807 5807 5807 5807 5806 5806 5806 5805 5803 5803 5804 5804 5804 5804 5805 5805 5805 5806 5806 5806 5806 5807 5808 5810 5811 5813 5815 5816 5818 5820 5821 5822 5824 5826 5828 5830 5831
5772 5773 5772 5773 5774 5774 5775 5777 5777 5778 5778 5778 5778 5779 5782 5784 5785 5787 5788 5789 5791 5792 5792 5793 5794 5795 5796 5796 5797 5796 5796 5796 5796 5795 5795 5794 5794 5795 5796 5796 5796 5797 5797 5798 5799 5800 5801 5801 5801 5802 5803 5803 5804 5804 5804 5804 5805 5805 5805 5805 5806 5806 5805 5805 5805 5805 5805 5804 5803 5802 5803 5802 5803 5803 5803 5803 5803 5804 5804 5804 5805 5806 5806 5808 5809 5811 5812 5814 5815 5817 5819 5821 5822 5823 5825 5827 5829
5769 5770 5770 5771 5771 5772 5773 5774 5775 5776 5776 5776 5776 5777 5779 5782 5784 5785 5786 5787 5789 5790 5790 5792 5792 5793 5793 5793 5793 5794 5794 5794 5794 5793 5793 5792 5792 5793 5794 5794 5794 5795 5796 5796 5797 5798 5799 5799 5799 5800 5801 5801 5801 5801 5802 5802 5803 5803 5803 5803 5804 5804 5803 5803 5803 5803 5803 5803 5802 5801 5801 5801 5802 5802 5802 5802 5802 5802 5802 5803 5804 5805 5805 5805 5807 5808 5810 5811 5813 5814 5816 5818 5820 5821 5823 5825 5826
5766 5767 5768 5768 5769 5770 5771 5772 5773 5774 5774 5774 5774 5775 5777 5779 5782 5783 5784 5785 5786 5788 5789 5790 5791 5791 5790 5790 5790 5791 5792 5792 5792 5792 5791 5791 5790 5791 5791 5792 5792 5793 5793 5794 5795 5796 5797 5797 5798 5798 5799 5799 5800 5800 5800 5800 5801 5801 5801 5801 5801 5801 5801 5801 5801 5801 5801 5801 5801 5800 5800 5801 5801 5801 5800 5800 5801 5801 5801 5802 5802 5803 5803 5803 5804 5806 5807 5809 5810 5812 5813 5815 5817 5819 5820 5822 5824
5764 5765 5766 5766 5767 5767 5769 5770 5770 5771 5771 5771 5772 5773 5775 5777 5780 5781 5782 5783 5784 5786 5787 5787 5787 5787 5786 5787 5788 5789 5789 5790 5790 5790 5789 5788 5788 5788 5788 5789 5790 5790 5791 5792 5793 5794 5794 5795 5796 5797 5797 5797 5797 5798 5798 5798 5798 5799 5799 5799 5799 5799 5799 5798 5798 5798 5798 5798 5799 5799 5799 5799 5800 5800 5798 5798 5799 5800 5799 5799 5800 5801 5801 5801 5802 5803 5805 5806 5808 5810 5811 5813 5815 5816 5818 5820 5822
5762 5763 5764 5765 5765 5765 5766 5767 5768 5768 5768 5769 5770 5772 5774 5776 5778 5778 5779 5781 5782 5783 5784 5784 5783 5783 5784 5785 5786 5786 5787 5787 5787 5787 5786 5785 5785 5785 5786 5786 5787 5788 5789 5790 5791 5792 5792 5794 5794 5795 5795 5795 5795 5795 5796 5796 5796 5796 5796 5796 5796 5796 5796 5796 5796 5796 5796 5796 5796 5797 5797 5798 5798 5797 5796 5796 5797 5797 5797 5798 5799 5799 5799 5799 5800 5801 5803 5804 5806 5807 5809 5811 5812 5814 5816 5818 5819
5761 5761 5762 5763 5764 5764 5764 5765 5765 5765 5766 5768 5769 5770 5771 5773 5775 5775 5776 5778 5779 5780 5780 5780 5779 5780 5782 5784 5784 5784 5784 5784 5784 5783 5783 5782 5783 5783 5784 5784 5784 5785 5786 5787 5788 5789 5790 5791 5792 5793 5793 5793 5793 5793 5793 5793 5793 5794 5794 5794 5794 5794 5794 5794 5793 5793 5793 5793 5794 5794 5795 5795 5795 5795 5795 5795 5795 5794 5795 5796 5797 5796 5797 5797 5798 5799 5801 5802 5803 5804 5806 5808 5810 5811 5813 5815 5817
5758 5759 5760 5761 5762 5762 5763 5763 5764 5765 5766 5768 5769 5769 5769 5770 5772 5773 5774 5775 5776 5777 5777 5777 5777 5778 5780 5781 5781 5782 5782 5781 5781 5780 5780 5780 5781 5781 5782 5781 5782 5783 5784 5785 5786 5786 5787 5788 5789 5790 5790 5790 5790 5791 5791 5791 5791 5791 5791 5791 5791 5791 5791 5791 5791 5791 5790 5791 5791 5791 5792 5793 5793 5793 5792 5792 5793 5793 5793 5794 5794 5794 5795 5795 5796 5797 5798 5799 5801 5802 5803 5805 5807 5808 5810 5812 5813
5756 5758 5758 5759 5760 5761 5762 5762 5764 5766 5766 5767 5767 5767 5767 5767 5769 5770 5770 5772 5773 5774 5774 5774 5775 5777 5777 5777 5778 5779 5779 5779 5779 5778 5778 5778 5779 5779 5779 5779 5780 5780 5781 5782 5783 5784 5784 5785 5786 5786 5787 5787 5787 5788 5788 5788 5787 5788 5788 5788 5788 5788 5788 5788 5788 5788 5788 5788 5788 5789 5789 5790 5790 5790 5790 5790 5791 5791 5791 5791 5792 5792 5793 5793 5794 5794 5795 5797 5798 5799 5801 5802 5803 5805 5807 5809 5810
5755 5757 5757 5758 5759 5760 5761 5762 5764 5765 5765 5765 5764 5764 5765 5765 5766 5767 5767 5769 5770 5771 5772 5773 5774 5775 5774 5774 5775 5775 5776 5776 5776 5776 5776 5776 5776 5776 5776 5776 5777 5778 5779 5780 5780 5781 5782 5782 5783 5783 5784 5784 5785 5785 5785 5785 5785 5784 5785 5785 5785 5785 5785 5785 5785 5785 5785 5785 5785 5786 5786 5786 5787 5788 5788 5788 5788 5788 5789 5789 5789 5790 5790 5791 5791 5791 5792 5794 5795 5796 5798 5799 5800 5802 5804 5806 5807
5755 5755 5756 5756 5758 5758 5759 5760 5761 5761 5762 5762 5761 5762 5763 5762 5763 5765 5765 5765 5767 5768 5769 5770 5772 5772 5771 5771 5771 5772 5772 5773 5774 5774 5774 5773 5773 5773 5773 5773 5774 5775 5775 5776 5777 5778 5779 5779 5780 5780 5781 5781 5782 5782 5783 5782 5782 5782 5781 5782 5782 5782 5783 5782 5782 5782 5782 5782 5782 5783 5783 5784 5784 5785 5786 5786 5785 5785 5786 5787 5787 5787 5787 5787 5788 5788 5789 5791 5792 5793 5795 5796 5797 5799 5801 5802 5804
5753 5754 5754 5755 5755 5755 5756 5756 5757 5758 5758 5759 5760 5761 5762 5761 5762 5762 5763 5762 5763 5764 5766 5768 5769 5769 5768 5768 5768 5769 5770 5770 5771 5772 5771 5770 5770 5770 5770 5770 5771 5771 5772 5773 5774 5775 5775 5776 5776 5777 5778 5778 5779 5779 5780 5780 5780 5780 5779 5779 5779 5779 5780 5780 5780 5779 5779 5779 5779 5779 5780 5781 5781 5782 5783 5783 5783 5783 5783 5784 5785 5784 5785 5785 5785 5786 5787 5788 5789 5790 5792 5793 5793 5794 5796 5798 5800
5751 5752 5752 5753 5753 5754 5754 5753 5754 5756 5757 5758 5759 5760 5760 5760 5760 5760 5760 5760 5759 5760 5762 5764 5766 5765 5765 5765 5765 5766 5767 5768 5769 5769 5768 5768 5768 5768 5768 5767 5768 5768 5769 5770 5771 5771 5772 5772 5773 5773 5774 5775 5775 5776 5776 5777 5777 5777 5777 5776 5776 5776 5777 5777 5777 5776 5776 5776 5776 5776 5777 5777 5778 5779 5780 5781 5781 5781 5781 5782 5782 5782 5783 5784 5783 5784 5784 5786 5787 5787 5789 5790 5790 5791 5792 5794 5796
5749 5750 5750 5751 5751 5751 5751 5751 5752 5754 5755 5756 5756 5757 5758 5758 5758 5758 5758 5757 5757 5758 5759 5760 5761 5762 5762 5762 5763 5763 5764 5765 5766 5765 5765 5765 5766 5766 5766 5765 5765 5765 5765 5767 5767 5767 5768 5768 5769 5769 5770 5771 5771 5772 5773 5774 5774 5774 5774 5774 5774 5773 5773 5773 5774 5773 5773 5773 5773 5773 5773 5774 5775 5775 5776 5778 5778 5778 5778 5779 5780 5781 5781 5781 5782 5782 5783 5783 5784 5784 5785 5787 5787 5788 5789 5791 5794
5747 5747 5748 5748 5748 5749 5749 5750 5750 5751 5752 5752 5753 5754 5755 5755 5755 5756 5756 5755 5755 5755 5756 5757 5757 5758 5759 5760 5760 5760 5761 5762 5762 5762 5762 5763 5763 5764 5764 5764 5763 5763 5763 5763 5763 5763 5764 5764 5765 5766 5766 5767 5768 5769 5770 5770 5771 5771 5771 5771 5771 5771 5770 5770 5770 5770 5770 5770 5770 5770 5770 5771 5771 5772 5773 5774 5775 5775 5776 5776 5778 5779 5779 5779 5779 5780 5781 5781 5782 5782 5783 5784 5785 5786 5787 5788 5790
5744 5745 5745 5746 5746 5746 5747 5747 5748 5748 5748 5749 5750 5751 5751 5752 5752 5753 5754 5754 5754 5753 5753 5754 5754 5755 5756 5757 5757 5757 5758 5758 5758 5759 5760 5761 5761 5761 5762 5761 5761 5760 5760 5760 5760 5760 5760 5761 5762 5762 5763 5764 5765 5766 5766 5767 5767 5767 5768 5768 5768 5768 5768 5767 5767 5767 5767 5767 5767 5767 5767 5767 5768 5769 5769 5770 5771 5772 5773 5773 5775 5776 5776 5776 5776 5777 5778 5779 5780 5781 5781 5782 5782 5784 5785 5785 5787
5742 5743 5743 5743 5743 5743 5744 5744 5745 5745 5746 5747 5748 5748 5749 5749 5749 5749 5751 5751 5752 5751 5751 5752 5752 5752 5753 5753 5754 5754 5754 5754 5755 5756 5757 5758 5758 5759 5759 5759 5759 5758 5757 5758 5757 5756 5757 5758 5759 5759 5760 5761 5762 5762 5763 5763 5763 5764 5764 5764 5765 5765 5765 5765 5764 5764 5764 5764 5764 5764 5764 5764 5764 5765 5766 5767 5768 5768 5769 5770 5771 5773 5774 5774 5774 5774 5775 5777 5778 5778 5779 5780 5781 5782 5782 5783 5784
5740 5740 5740 5740 5740 5741 5741 5741 5741 5742 5743 5744 5745 5746 5746 5746 5746 5747 5748 5748 5748 5748 5748 5749 5749 5749 5749 5750 5750 5750 5750 5751 5751 5753 5754 5755 5756 5756 5757 5756 5756 5755 5754 5754 5754 5753 5753 5755 5756 5756 5757 5758 5758 5759 5759 5760 5760 5760 5760 5761 5762 5762 5762 5762 5762 5761 5761 5761 5761 5761 5761 5761 5762 5762 5763 5764 5764 5765 5766 5767 5768 5769 5771 5771 5772 5773 5774 5775 5776 5777 5777 5778 5779 5780 5780 5781 5781
5737 5737 5738 5738 5738 5738 5738 5738 5738 5738 5739 5740 5741 5742 5743 5743 5744 5744 5744 5744 5745 5744 5744 5745 5746 5747 5747 5746 5747 5747 5747 5748 5748 5749 5751 5752 5753 5753 5754 5753 5753 5752 5751 5750 5750 5749 5750 5752 5753 5753 5754 5755 5755 5756 5756 5756 5756 5756 5756 5757 5758 5759 5759 5759 5759 5759 5758 5758 5758 5758 5759 5759 5759 5759 5760 5760 5761 5762 5762 5764 5765 5766 5768 5768 5769 5770 5771 5773 5773 5775 5776 5775 5776 5777 5778 5779 5780
5734 5734 5734 5735 5735 5735 5735 5735 5735 5735 5735 5736 5737 5738 5739 5740 5741 5741 5741 5741 5741 5740 5740 5742 5744 5744 5744 5744 5744 5744 5744 5745 5745 5746 5747 5748 5749 5750 5751 5750 5749 5748 5747 5747 5747 5747 5747 5749 5750 5750 5751 5751 5752 5752 5753 5753 5753 5753 5753 5753 5754 5755 5755 5755 5755 5756 5756 5756 5755 5756 5756 5756 5756 5757 5757 5758 5758 5759 5759 5761 5762 5763 5764 5765 5766 5767 5768 5769 5771 5772 5773 5773 5773 5774 5775 5776 5778
5731 5731 5731 5731 5731 5731 5731 5731 5731 5732 5732 5733 5734 5734 5736 5738 5738 5738 5739 5738 5737 5736 5736 5739 5741 5740 5740 5741 5741 5741 5741 5741 5742 5742 5743 5745 5746 5747 5747 5747 5746 5745 5745 5745 5745 5744 5745 5746 5747 5747 5747 5748 5749 5749 5750 5750 5750 5750 5749 5750 5750 5751 5751 5751 5752 5752 5752 5753 5753 5753 5753 5754 5754 5754 5755 5755 5756 5756 5757 5758 5759 5761 5762 5762 5763 5764 5765 5766 5767 5769 5770 5770 5771 5772 5773 5774 5775
5728 5728 5728 5728 5728 5728 5728 5728 5728 5728 5729 5730 5730 5731 5732 5735 5735 5735 5736 5735 5734 5734 5733 5734 5736 5736 5736 5737 5738 5738 5738 5738 5738 5738 5739 5741 5743 5744 5744 5744 5743 5743 5743 5742 5742 5742 5742 5743 5744 5744 5744 5744 5745 5746 5747 5748 5747 5747 5746 5747 5747 5747 5748 5748 5748 5748 5749 5749 5750 5750 5751 5751 5752 5752 5753 5753 5754 5754 5755 5755 5756 5758 5759 5760 5760 5761 5762 5763 5764 5766 5767 5767 5768 5769 5770 5771 5772
5725 5726 5725 5725 5725 5725 5725 5725 5725 5725 5726 5726 5727 5728 5728 5729 5732 5734 5733 5732 5731 5732 5731 5731 5730 5731 5732 5734 5735 5735 5735 5735 5734 5735 5736 5737 5740 5740 5741 5741 5741 5741 5740 5740 5740 5739 5739 5740 5741 5741 5741 5741 5742 5743 5745 5745 5745 5744 5744 5744 5744 5744 5744 5744 5744 5744 5745 5745 5746 5747 5748 5749 5749 5750 5750 5751 5751 5752 5752 5753 5754 5755 5756 5757 5758 5758 5759 5760 5761 5762 5763 5764 5765 5766 5767 5768 5769
5723 5722 5722 5722 5722 5722 5722 5722 5722 5721 5722 5723 5724 5726 5724 5723 5728 5731 5731 5729 5729 5729 5728 5727 5726 5727 5729 5730 5731 5732 5732 5732 5732 5732 5733 5734 5736 5737 5738 5738 5738 5738 5738 5738 5737 5737 5737 5737 5738 5738 5738 5739 5739 5740 5741 5742 5742 5741 5741 5741 5742 5742 5742 5742 5741 5741 5741 5742 5743 5743 5744 5746 5747 5747 5748 5749 5749 5750 5750 5751 5751 5752 5753 5754 5755 5755 5756 5757 5758 5759 5760 5761 5762 5763 5764 5765 5766
5719 5718 5719 5719 5719 5719 5719 5719 5719 5718 5719 5720 5722 5723 5721 5719 5723 5726 5726 5726 5724 5724 5723 5722 5722 5724 5726 5727 5728 5728 5728 5729 5729 5730 5730 5731 5732 5733 5734 5735 5735 5735 5735 5735 5735 5735 5734 5734 5735 5735 5735 5736 5736 5737 5738 5738 5739 5739 5738 5738 5739 5739 5739 5739 5739 5739 5738 5739 5739 5740 5741 5742 5743 5744 5745 5746 5747 5748 5748 5749 5749 5750 5751 5752 5752 5753 5754 5754 5755 5757 5758 5758 5759 5760 5761 5762 5763
5715 5716 5716 5716 5716 5716 5716 5716 5716 5715 5716 5718 5720 5720 5717 5717 5720 5722 5722 5721 5719 5719 5720 5719 5720 5721 5723 5725 5726 5725 5725 5726 5727 5728 5728 5728 5729 5730 5731 5732 5732 5733 5733 5733 5732 5732 5732 5732 5732 5732 5732 5733 5733 5734 5735 5735 5735 5735 5735 5736 5736 5736 5737 5737 5737 5737 5736 5736 5736 5737 5737 5738 5739 5740 5742 5743 5744 5745 5746 5746 5747 5747 5748 5749 5750 5750 5751 5752 5753 5754 5755 5756 5756 5757 5758 5759 5760
5713 5713 5714 5714 5714 5713 5713 5714 5713 5713 5714 5715 5716 5715 5714 5715 5718 5719 5718 5717 5716 5716 5717 5717 5717 5719 5720 5721 5722 5722 5722 5723 5724 5725 5725 5725 5726 5727 5728 5729 5730 5730 5730 5730 5730 5730 5730 5730 5730 5730 5730 5730 5731 5732 5732 5732 5732 5732 5732 5733 5733 5734 5734 5734 5735 5734 5734 5734 5734 5734 5735 5735 5736 5736 5738 5739 5740 5742 5743 5743 5744 5745 5745 5746 5747 5748 5748 5749 5750 5751 5752 5753 5754 5755 5755 5756 5757
5710 5710 5711 5711 5711 5711 5711 5711 5711 5711 5712 5713 5712 5711 5711 5714 5716 5716 5715 5714 5714 5714 5715 5715 5715 5717 5717 5717 5718 5719 5719 5720 5721 5721 5722 5722 5723 5724 5725 5727 5728 5728 5728 5728 5728 5728 5728 5728 5728 5728 5728 5728 5729 5729 5729 5729 5729 5729 5730 5730 5730 5730 5731 5732 5732 5732 5732 5732 5732 5732 5733 5733 5733 5733 5734 5735 5736 5737 5739 5740 5741 5742 5742 5743 5744 5745 5745 5746 5747 5748 5749 5750 5751 5752 5752 5753 5754
5708 5708 5708 5709 5708 5708 5708 5709 5709 5709 5710 5710 5709 5709 5710 5713 5714 5712 5712 5711 5711 5712 5712 5713 5714 5715 5715 5715 5715 5716 5716 5717 5717 5718 5718 5719 5720 5721 5722 5724 5725 5725 5725 5725 5725 5726 5726 5726 5726 5726 5726 5726 5726 5726 5726 5726 5727 5727 5727 5727 5727 5727 5728 5729 5729 5730 5729 5729 5729 5730 5730 5731 5731 5731 5732 5732 5733 5734 5734 5735 5737 5738 5739 5740 5741 5742 5742 5743 5743 5744 5745 5746 5747 5748 5749 5750 5751
5705 5705 5706 5706 5707 5706 5706 5707 5707 5707 5707 5707 5707 5707 5709 5711 5710 5709 5710 5709 5710 5710 5711 5712 5712 5712 5712 5713 5713 5714 5713 5714 5714 5715 5716 5716 5717 5717 5719 5721 5722 5722 5722 5723 5723 5723 5723 5724 5724 5724 5724 5724 5724 5723 5723 5724 5724 5724 5724 5724 5724 5724 5725 5725 5726 5727 5727 5727 5727 5727 5728 5728 5728 5729 5729 5730 5731 5731 5732 5732 5733 5734 5735 5736 5737 5738 5739 5739 5740 5741 5741 5742 5743 5744 5745 5746 5747
5703 5703 5703 5704 5705 5704 5704 5704 5704 5704 5704 5705 5706 5706 5707 5708 5706 5706 5708 5708 5708 5709 5709 5709 5709 5710 5710 5710 5711 5712 5711 5711 5712 5712 5713 5714 5714 5714 5715 5718 5719 5719 5720 5720 5720 5720 5721 5721 5721 5721 5721 5721 5721 5721 5721 5721 5721 5721 5721 5721 5721 5721 5722 5722 5723 5723 5724 5724 5725 5725 5725 5725 5725 5726 5726 5727 5728 5729 5729 5730 5730 5731 5732 5732 5733 5734 5735 5736 5736 5737 5738 5738 5739 5740 5741 5742 5743
5701 5701 5701 5701 5702 5702 5701 5701 5701 5701 5701 5702 5704 5705 5705 5706 5703 5703 5706 5706 5706 5707 5706 5706 5706 5707 5708 5708 5708 5709 5709 5710 5710 5711 5711 5711 5711 5711 5713 5714 5715 5716 5716 5717 5717 5718 5718 5719 5719 5719 5719 5719 5718 5718 5718 5718 5718 5718 5718 5718 5718 5718 5719 5719 5719 5720 5720 5721 5721 5722 5722 5723 5723 5723 5723 5724 5724 5725 5726 5727 5728 5728 5729 5730 5730 5731 5731 5732 5733 5734 5734 5735 5736 5736 5737 5737 5738
5699 5699 5699 5699 5699 5699 5699 5699 5698 5698 5699 5699 5701 5702 5703 5703 5701 5700 5702 5703 5704 5704 5703 5704 5703 5704 5704 5705 5706 5706 5707 5708 5708 5709 5709 5710 5710 5709 5711 5712 5713 5713 5713 5714 5714 5715 5716 5717 5717 5718 5717 5717 5716 5716 5715 5715 5715 5715 5714 5714 5715 5715 5715 5715 5716 5716 5716 5717 5717 5718 5719 5720 5720 5720 5720 5721 5721 5722 5722 5723 5724 5725 5725 5726 5726 5727 5728 5728 5729 5730 5730 5731 5732 5733 5734 5734 5734
5696 5697 5697 5696 5697 5696 5696 5696 5695 5696 5696 5695 5697 5698 5700 5700 5698 5698 5699 5700 5700 5700 5700 5700 5700 5700 5700 5701 5702 5703 5704 5705 5706 5707 5708 5708 5708 5708 5708 5710 5710 5710 5711 5711 5712 5713 5713 5714 5715 5715 5715 5715 5714 5714 5713 5713 5712 5712 5711 5711 5711 5711 5711 5712 5712 5712 5712 5712 5713 5714 5715 5716 5717 5717 5717 5718 5718 5718 5719 5719 5720 5721 5721 5722 5722 5723 5723 5724 5725 5726 5726 5727 5728 5729 5730 5730 5731
5693 5693 5693 5693 5693 5693 5693 5692 5692 5693 5692 5692 5692 5694 5696 5697 5696 5696 5696 5696 5696 5697 5696 5697 5697 5696 5697 5697 5698 5699 5700 5701 5702 5703 5704 5705 5705 5705 5705 5706 5708 5708 5708 5709 5709 5710 5710 5711 5711 5712 5712 5712 5712 5711 5711 5710 5710 5709 5708 5708 5707 5707 5708 5708 5708 5709 5709 5709 5709 5710 5711 5712 5712 5713 5714 5714 5714 5714 5715 5715 5716 5717 5717 5718 5718 5719 5719 5719 5720 5721 5722 5722 5723 5724 5724 5725 5726
5689 5689 5689 5689 5689 5689 5689 5689 5689 5689 5689 5688 5688 5689 5691 5692 5692 5692 5692 5692 5693 5693 5693 5694 5694 5694 5694 5694 5694 5695 5696 5697 5698 5699 5700 5701 5702 5702 5702 5703 5704 5705 5705 5706 5706 5706 5707 5707 5708 5708 5708 5708 5708 5708 5708 5707 5706 5706 5705 5705 5704 5704 5704 5704 5705 5705 5705 5705 5705 5705 5706 5707 5708 5709 5709 5710 5710 5711 5711 5712 5712 5712 5713 5713 5714 5714 5714 5715 5715 5716 5716 5717 5718 5718 5719 5719 5720
5686 5685 5684 5685 5685 5685 5685 5684 5684 5685 5685 5684 5684 5685 5685 5685 5686 5688 5688 5687 5688 5689 5690 5691 5691 5691 5691 5691 5690 5691 5691 5692 5693 5694 5695 5696 5697 5697 5697 5698 5699 5700 5701 5701 5702 5702 5703 5704 5704 5703 5703 5704 5705 5704 5704 5704 5703 5702 5702 5701 5701 5700 5700 5700 5700 5700 5700 5700 5701 5701 5702 5702 5703 5704 5705 5705 5706 5707 5707 5708 5708 5708 5709 5709 5709 5710 5710 5710 5711 5711 5712 5712 5712 5713 5713 5713 5714